Waarnemingen

Advertentie
Mijn weer
Malung A, Zweden (2407): temperatuur & dauwpunt: 14.09.2020 20:00:00 - 20.09.2020 20:00:00 (CEST)Malung A, Zweden (2407): windsnelheid & windstoten: 14.09.2020 20:00:00 - 20.09.2020 20:00:00 (CEST)Malung A, Zweden (2407): windrichting: 14.09.2020 20:00:00 - 20.09.2020 20:00:00 (CEST)Malung A, Zweden (2407): luchtdruk: 14.09.2020 20:00:00 - 20.09.2020 20:00:00 (CEST)Malung A, Zweden (2407): zicht: 14.09.2020 20:00:00 - 20.09.2020 20:00:00 (CEST)Malung A, Zweden (2407): neerslag: 14.09.2020 20:00:00 - 20.09.2020 20:00:00 (CEST)
Datum & Tijd tt [°C] td [°C] ff [km/u] ff [kn] fx [km/u] fx [kn] dd ppp [hPa] vv [km] rr [mm]
20.09.2020 20:00:00 - - - - - - - - - -
20.09.2020 19:00:00 12,2 5,8 4 2 12 6 ZW 1015,6 50 0,0
20.09.2020 18:00:00 13,1 6,7 6 3 17 9 Z 1015,7 50 0,0
20.09.2020 17:00:00 14,1 6,1 9 5 22 12 WZW 1016,1 50 0,0
20.09.2020 16:00:00 14,8 5,1 8 4 18 10 WZW 1016,1 50 0,0
20.09.2020 15:00:00 14,3 4,8 10 6 21 12 ZW 1016,7 50 0,0
20.09.2020 14:00:00 13,8 4,4 7 4 17 9 ZZW 1017,4 50 0,0
20.09.2020 13:00:00 13,3 5,0 10 5 22 12 NW 1018,0 50 0,0
20.09.2020 12:00:00 11,7 6,0 8 5 19 11 WZW 1018,3 50 0,0
20.09.2020 11:00:00 10,9 6,0 10 5 24 13 W 1019,0 50 0,0
20.09.2020 10:00:00 8,8 6,0 3 2 13 7 ZZO 1019,3 50 0,0
20.09.2020 09:00:00 7,1 5,4 9 5 15 8 ZZO 1019,3 50 0,0
20.09.2020 08:00:00 0,0 -1,9 8 4 13 7 ZZO 1021,2 10 0,0
20.09.2020 07:00:00 -1,8 -4,1 3 2 7 4 WNW 1021,3 50 0,0
20.09.2020 06:00:00 -2,0 -4,3 3 2 6 4 W 1021,8 50 0,0
20.09.2020 05:00:00 -1,9 -4,3 3 2 7 4 NNW 1022,5 50 0,0
20.09.2020 04:00:00 -1,7 -4,2 4 2 10 5 Z 1022,7 50 0,0
20.09.2020 03:00:00 -1,2 -3,6 3 2 5 3 W 1023,2 11 0,0
20.09.2020 02:00:00 -1,1 -3,6 0 0 6 3 N 1023,5 13 0,0
20.09.2020 01:00:00 -0,1 -2,3 2 1 6 3 ZZO 1023,9 41 0,0
20.09.2020 00:00:00 0,5 -1,8 2 1 6 3 WNW 1024,3 3,5 0,0
19.09.2020 23:00:00 1,3 -1,1 4 2 6 3 WNW 1024,7 50 0,0
19.09.2020 22:00:00 2,0 -0,9 0 0 6 3 N 1024,8 50 0,0
19.09.2020 21:00:00 3,4 0,6 3 1 5 3 N 1024,5 50 0,0
19.09.2020 20:00:00 4,8 1,3 3 2 6 4 Z 1024,3 50 0,0
19.09.2020 19:00:00 7,2 2,9 3 2 4 2 ZW 1023,8 50 0,0
19.09.2020 18:00:00 11,9 2,4 4 2 13 7 WNW 1023,2 50 0,0
19.09.2020 17:00:00 14,8 1,3 7 4 16 9 NW 1023,3 50 0,0
19.09.2020 16:00:00 14,7 1,8 8 4 15 8 NNW 1023,5 50 0,0
19.09.2020 15:00:00 14,6 1,8 8 4 18 10 WNW 1023,8 50 0,0
19.09.2020 14:00:00 14,1 1,0 9 5 21 11 NW 1024,5 50 0,0
19.09.2020 13:00:00 13,1 2,0 5 3 13 7 NW 1025,2 40 0,0
19.09.2020 12:00:00 11,5 1,4 5 3 8 5 O 1026,2 45 0,0
19.09.2020 11:00:00 9,2 3,0 3 1 5 3 O 1027,0 50 0,0
19.09.2020 10:00:00 4,6 0,7 2 1 7 4 N 1027,9 50 0,0
19.09.2020 09:00:00 1,7 -0,6 3 2 6 3 N 1028,1 50 0,0
19.09.2020 08:00:00 -0,5 -2,4 4 2 9 5 Z 1027,9 1,6 0,0
19.09.2020 07:00:00 -1,2 -4,0 0 0 4 2 N 1027,4 - 0,0
19.09.2020 06:00:00 -0,5 -3,4 0 0 5 3 N 1027,2 - 0,0
19.09.2020 05:00:00 -1,0 -3,4 3 2 9 5 ZZW 1027,0 50 0,0
19.09.2020 04:00:00 0,3 -1,5 4 2 7 4 NNW 1026,6 1,3 0,0
19.09.2020 03:00:00 0,8 -1,6 3 2 6 3 Z 1026,3 49 0,0
19.09.2020 02:00:00 1,5 -0,9 3 2 6 4 W 1026,1 50 0,0
19.09.2020 01:00:00 2,9 1,4 3 2 6 3 NNW 1025,6 50 0,0
19.09.2020 00:00:00 3,9 0,8 0 0 5 3 N 1025,5 2,4 0,0
18.09.2020 23:00:00 5,4 2,9 3 1 - - N 1024,9 50 0,0
18.09.2020 22:00:00 6,8 4,3 5 3 8 4 WNW 1024,7 50 0,0
18.09.2020 21:00:00 8,6 5,5 3 1 7 4 ZW 1023,8 50 0,0
18.09.2020 20:00:00 10,9 6,4 3 1 9 5 ONO 1022,8 50 0,0
18.09.2020 19:00:00 15,5 7,1 6 4 17 9 NW 1021,8 50 0,0
18.09.2020 18:00:00 17,2 8,1 11 6 27 15 N 1020,7 50 0,0
18.09.2020 17:00:00 19,5 6,9 10 5 25 13 W 1019,7 50 0,0
18.09.2020 16:00:00 19,6 6,7 11 6 26 14 WNW 1019,8 50 0,0
18.09.2020 15:00:00 18,8 6,6 9 5 31 17 W 1019,8 50 0,0
18.09.2020 14:00:00 18,1 6,3 10 5 31 17 WZW 1019,8 50 0,0
18.09.2020 13:00:00 16,8 5,2 11 6 29 16 WZW 1020,0 49 0,0
18.09.2020 12:00:00 15,7 4,7 6 4 19 10 WZW 1020,4 50 0,0
18.09.2020 11:00:00 14,0 4,3 6 4 13 7 NW 1020,9 50 0,0
18.09.2020 10:00:00 9,5 4,1 4 2 9 5 N 1022,1 50 0,0
18.09.2020 09:00:00 7,3 2,8 4 2 9 5 N 1022,3 50 0,0
18.09.2020 08:00:00 3,1 0,5 0 0 7 4 N 1023,1 50 0,0
18.09.2020 07:00:00 2,0 -0,4 3 1 9 5 NNO 1023,2 50 0,0
18.09.2020 06:00:00 1,6 -1,1 4 2 6 3 Z 1023,5 50 0,0
18.09.2020 05:00:00 2,3 -0,8 0 0 4 2 N 1024,0 50 0,0
18.09.2020 04:00:00 2,3 -0,9 2 1 4 2 Z 1024,5 50 0,0
18.09.2020 03:00:00 1,5 -1,2 0 0 5 3 N 1025,2 50 0,0
18.09.2020 02:00:00 1,7 -0,9 3 1 6 3 OZO 1025,8 50 0,0
18.09.2020 01:00:00 2,3 -0,7 2 1 5 3 W 1026,2 50 0,0
18.09.2020 00:00:00 3,6 0,1 2 1 6 3 Z 1026,6 50 0,0
17.09.2020 23:00:00 4,6 1,3 3 2 6 3 Z 1027,2 50 0,0
17.09.2020 22:00:00 5,4 1,3 2 1 5 3 ZO 1027,5 26 0,0
17.09.2020 21:00:00 5,8 1,3 3 2 6 3 W 1028,0 50 0,0
17.09.2020 20:00:00 7,2 2,1 6 3 9 5 ZZW 1027,7 50 0,0
17.09.2020 19:00:00 9,1 1,8 4 2 8 4 ZW 1027,6 50 0,0
17.09.2020 18:00:00 10,7 0,2 4 2 13 7 ZZW 1027,6 50 0,0
17.09.2020 17:00:00 12,0 -0,2 6 4 14 8 W 1027,3 50 0,0
17.09.2020 16:00:00 11,7 -0,1 8 4 17 9 W 1027,7 50 0,0
17.09.2020 15:00:00 12,4 0,5 8 4 17 9 WNW 1027,8 46 0,0
17.09.2020 14:00:00 11,8 -2,4 11 6 22 12 NW 1028,0 45 0,0
17.09.2020 13:00:00 11,0 -0,8 10 6 24 13 NW 1028,8 50 0,0
17.09.2020 12:00:00 10,6 -1,8 12 6 29 16 N 1028,7 46 0,0
17.09.2020 11:00:00 9,7 -1,1 14 8 29 15 NNW 1029,0 50 0,0
17.09.2020 10:00:00 8,4 -0,9 13 7 29 16 NNW 1029,2 50 0,0
17.09.2020 09:00:00 6,8 -0,7 11 6 26 14 NW 1029,2 50 0,0
17.09.2020 08:00:00 5,6 -1,1 14 7 26 14 NW 1029,1 50 0,0
17.09.2020 07:00:00 4,1 -1,9 8 4 16 9 WNW 1029,0 50 0,0
17.09.2020 06:00:00 4,8 -1,0 9 5 21 12 WNW 1028,3 50 0,0
17.09.2020 05:00:00 5,4 -0,4 13 7 27 15 NNW 1028,4 50 0,0
17.09.2020 04:00:00 3,4 -1,7 5 3 14 8 NW 1028,4 50 0,0
17.09.2020 03:00:00 4,7 -1,1 8 5 24 13 NNW 1028,0 50 0,0
17.09.2020 02:00:00 5,0 -1,7 12 6 24 13 NW 1027,5 50 0,0
17.09.2020 01:00:00 4,3 -2,6 5 3 20 11 NW 1026,9 50 0,0
17.09.2020 00:00:00 5,3 -2,3 9 5 34 18 NW 1026,2 50 0,0
16.09.2020 23:00:00 6,2 -1,2 17 9 30 16 NNW 1025,1 50 0,0
16.09.2020 22:00:00 6,3 -1,4 17 9 41 22 NW 1024,6 50 0,0
16.09.2020 21:00:00 7,2 -1,2 17 9 29 16 NW 1023,8 50 0,0
16.09.2020 20:00:00 8,5 -1,1 17 9 36 19 NNW 1022,5 50 0,0
16.09.2020 19:00:00 9,3 -1,2 16 9 44 24 NNW 1021,1 50 0,0
16.09.2020 18:00:00 10,1 0,1 14 8 55 30 NNW 1020,0 50 0,0
16.09.2020 17:00:00 11,3 -0,5 28 15 54 29 NNW 1018,9 48 0,0
16.09.2020 16:00:00 12,1 1,4 26 14 53 28 NNW 1017,9 50 0,0
16.09.2020 15:00:00 11,8 0,2 24 13 46 25 N 1016,7 50 0,0
16.09.2020 14:00:00 11,4 0,2 23 12 55 30 N 1016,2 50 0,0
16.09.2020 13:00:00 11,0 1,0 30 16 57 31 N 1015,3 50 0,0
16.09.2020 12:00:00 10,5 1,6 31 17 48 26 NNW 1014,9 49 0,0
16.09.2020 11:00:00 9,7 2,8 26 14 41 22 NNW 1013,9 45 0,0
16.09.2020 10:00:00 - - - - - - - - - -
16.09.2020 09:00:00 8,3 4,9 18 10 50 27 NW 1012,3 50 0,3
16.09.2020 08:00:00 13,1 9,5 5 3 16 9 W 1009,2 50 0,0
16.09.2020 07:00:00 12,9 9,2 6 3 16 9 ZW 1008,8 50 0,0
16.09.2020 06:00:00 12,9 9,5 8 5 19 11 ZW 1009,3 50 0,0
16.09.2020 05:00:00 12,9 9,5 7 4 19 10 ZW 1009,8 50 0,0
16.09.2020 04:00:00 12,9 9,9 8 5 33 18 ZW 1010,5 46 0,0
16.09.2020 03:00:00 12,8 10,0 10 6 31 17 ZZW 1011,1 37 0,0
16.09.2020 02:00:00 13,1 10,3 10 5 17 9 Z 1012,5 38 0,0
16.09.2020 01:00:00 12,9 10,8 14 7 22 12 ZZO 1013,4 32 0,0
16.09.2020 00:00:00 12,9 10,4 5 3 19 10 ZZO 1014,5 14 0,1
15.09.2020 23:00:00 13,1 10,6 10 6 16 9 Z 1015,7 31 0,0
15.09.2020 22:00:00 13,4 11,0 9 5 18 10 Z 1016,6 23 0,0
15.09.2020 21:00:00 13,2 11,1 6 4 12 6 Z 1017,1 11 0,0
15.09.2020 20:00:00 13,5 11,0 5 3 8 4 ZO 1017,9 8 0,0
15.09.2020 19:00:00 13,3 10,8 2 1 8 5 NNO 1018,2 10 0,0
15.09.2020 18:00:00 13,6 10,2 0 0 10 6 N 1018,8 45 0,0
15.09.2020 17:00:00 14,0 11,3 6 3 12 6 O 1019,6 50 0,0
15.09.2020 16:00:00 15,3 11,1 6 3 10 5 OZO 1019,8 50 0,0
15.09.2020 15:00:00 14,8 11,0 5 3 14 7 ZO 1020,4 50 0,0
15.09.2020 14:00:00 14,3 11,8 5 3 11 6 O 1020,8 49 0,0
15.09.2020 13:00:00 13,6 10,9 3 2 10 5 O 1021,7 10 0,0
15.09.2020 12:00:00 13,3 11,0 3 1 7 4 O 1021,5 2,5 0,0
15.09.2020 11:00:00 12,7 10,9 4 2 8 4 O 1021,4 - 0,0
15.09.2020 10:00:00 12,3 10,5 4 2 10 5 O 1021,5 3,0 0,0
15.09.2020 09:00:00 12,3 10,4 5 3 9 5 O 1021,0 1,2 0,0
15.09.2020 08:00:00 11,6 9,2 0 0 10 5 N 1021,6 3,1 0,0
15.09.2020 07:00:00 10,8 8,2 0 0 6 3 N 1021,1 12 0,0
15.09.2020 06:00:00 10,2 7,7 0 0 5 3 N 1020,6 10 0,0
15.09.2020 05:00:00 8,8 6,7 0 0 5 3 N 1020,6 6 0,0
15.09.2020 04:00:00 8,5 6,5 2 1 6 3 Z 1020,2 - 0,0
15.09.2020 03:00:00 9,0 7,0 2 1 5 3 NNW 1020,1 0,4 0,0
15.09.2020 02:00:00 9,7 7,3 3 2 6 3 ZZO 1019,7 - 0,0
15.09.2020 01:00:00 10,4 7,8 2 1 11 6 Z 1019,3 - 0,0
15.09.2020 00:00:00 11,5 9,6 6 3 11 6 ZZW 1018,8 3,9 0,0
14.09.2020 23:00:00 13,0 10,5 4 2 9 5 ZZO 1018,4 44 0,0
14.09.2020 22:00:00 15,0 11,6 6 3 16 9 O 1017,4 50 0,0
14.09.2020 21:00:00 16,3 11,7 6 4 18 10 Z 1016,9 50 0,0
14.09.2020 20:00:00 16,9 11,8 9 5 16 9 ZZW 1016,5 50 0,0

tt = temperatuur
td = dauwpunt
ff = windsnelheid
fx = windstoten
dd = windrichting
ppp = luchtdruk
vv = zicht
rr = neerslag

Weerstations in de omgeving